UAL1763 KSFO-KSEA

Flight info

Callsign UAL1763
Flight time N/A
Altitude 32000
Route TRUKN2 DEDHD RBL LMT HAWKZ8
Aircraft A320/M-SDE3FGHIRWY/LB1

Departure

Time 2026-05-06 02:59
Airport San Francisco International Airport (KSFO)

Arrival

Time N/A
Airport Seattle–Tacoma International Airport (KSEA)
Time Latitude Longitude Altitude Speed Heading
2026-05-06 02:21 37.62110 -122.39071 22 ft 0 kts 118°
2026-05-06 02:46 37.62116 -122.39084 22 ft 4 kts 118°
2026-05-06 02:46 37.62127 -122.39112 24 ft 1 kts 118°
2026-05-06 02:46 37.62136 -122.39139 22 ft 4 kts 91°
2026-05-06 02:47 37.62130 -122.39169 22 ft 4 kts 45°
2026-05-06 02:47 37.62109 -122.39186 24 ft 4 kts 28°
2026-05-06 02:47 37.62105 -122.39189 23 ft 0 kts 28°
2026-05-06 02:47 37.62106 -122.39188 23 ft 0 kts 28°
2026-05-06 02:48 37.62109 -122.39186 24 ft 0 kts 28°
2026-05-06 02:50 37.62112 -122.39184 23 ft 1 kts 28°
2026-05-06 02:50 37.62130 -122.39172 22 ft 8 kts 28°
2026-05-06 02:51 37.62228 -122.39085 22 ft 25 kts 63°
2026-05-06 02:51 37.62244 -122.38871 23 ft 26 kts 114°
2026-05-06 02:51 37.62159 -122.38662 22 ft 28 kts 118°
2026-05-06 02:51 37.62067 -122.38440 22 ft 29 kts 118°
2026-05-06 02:52 37.61968 -122.38206 22 ft 31 kts 118°
2026-05-06 02:52 37.61880 -122.37997 24 ft 24 kts 118°
2026-05-06 02:52 37.61812 -122.37810 22 ft 21 kts 110°
2026-05-06 02:52 37.61794 -122.37754 22 ft 0 kts 112°
2026-05-06 02:53 37.61792 -122.37748 22 ft 2 kts 112°
2026-05-06 02:53 37.61785 -122.37725 22 ft 4 kts 111°
2026-05-06 02:53 37.61772 -122.37683 23 ft 6 kts 111°
2026-05-06 02:54 37.61754 -122.37626 22 ft 8 kts 111°
2026-05-06 02:54 37.61732 -122.37555 22 ft 10 kts 113°
2026-05-06 02:54 37.61700 -122.37473 22 ft 12 kts 116°
2026-05-06 02:54 37.61645 -122.37337 22 ft 23 kts 117°
2026-05-06 02:55 37.61564 -122.37137 22 ft 27 kts 118°
2026-05-06 02:55 37.61466 -122.36926 22 ft 27 kts 126°
2026-05-06 02:55 37.61379 -122.36796 22 ft 19 kts 130°
2026-05-06 02:55 37.61366 -122.36776 22 ft 20 kts 130°
2026-05-06 02:56 37.61342 -122.36735 22 ft 23 kts 120°
2026-05-06 02:56 37.61251 -122.36512 22 ft 31 kts 117°
2026-05-06 02:56 37.61150 -122.36271 22 ft 30 kts 117°
2026-05-06 02:57 37.61063 -122.36061 22 ft 26 kts 116°
2026-05-06 02:57 37.61072 -122.35940 22 ft 0 kts 57°
2026-05-06 02:57 37.61075 -122.35935 22 ft 3 kts 52°
2026-05-06 02:57 37.61120 -122.35898 22 ft 12 kts 24°
2026-05-06 02:58 37.61211 -122.35934 22 ft 18 kts 298°
2026-05-06 02:58 37.61218 -122.35952 22 ft 0 kts 294°
2026-05-06 02:58 37.61305 -122.36163 22 ft 61 kts 298°
2026-05-06 02:58 37.61593 -122.36847 22 ft 113 kts 298°
2026-05-06 02:59 37.62027 -122.37881 22 ft 151 kts 297°
2026-05-06 02:59 37.62540 -122.39106 355 ft 164 kts 299°
2026-05-06 02:59 37.63297 -122.40286 738 ft 184 kts 323°
2026-05-06 02:59 37.64603 -122.40674 1093 ft 210 kts 14°
2026-05-06 03:00 37.65759 -122.39594 1881 ft 213 kts 47°
2026-05-06 03:00 37.66589 -122.37923 2233 ft 238 kts 65°
2026-05-06 03:00 37.67206 -122.35866 2616 ft 262 kts 70°
2026-05-06 03:00 37.67799 -122.33639 3330 ft 271 kts 70°
2026-05-06 03:01 37.68429 -122.31384 4227 ft 272 kts 69°
2026-05-06 03:01 37.69098 -122.29185 5211 ft 271 kts 67°
2026-05-06 03:01 37.69814 -122.26995 6150 ft 269 kts 65°
2026-05-06 03:01 37.70569 -122.24821 6998 ft 271 kts 62°
2026-05-06 03:02 37.71667 -122.22897 7766 ft 271 kts 42°
2026-05-06 03:02 37.73219 -122.21548 8550 ft 273 kts 24°
2026-05-06 03:02 37.75054 -122.20906 9320 ft 277 kts
2026-05-06 03:02 37.76974 -122.20602 10101 ft 279 kts
2026-05-06 03:03 37.78911 -122.20290 10495 ft 295 kts
2026-05-06 03:03 37.81031 -122.19941 10635 ft 318 kts
2026-05-06 03:03 37.83295 -122.19609 10867 ft 335 kts
2026-05-06 03:03 37.85648 -122.19343 11422 ft 341 kts
2026-05-06 03:04 37.88031 -122.19112 12064 ft 345 kts
2026-05-06 03:04 37.90434 -122.18891 12702 ft 348 kts
2026-05-06 03:04 37.92863 -122.18665 13342 ft 351 kts
2026-05-06 03:04 37.95284 -122.18431 13968 ft 353 kts
2026-05-06 03:05 37.97775 -122.18180 14525 ft 356 kts
2026-05-06 03:05 38.00223 -122.17929 15075 ft 359 kts
2026-05-06 03:05 38.02719 -122.17674 15623 ft 361 kts
2026-05-06 03:05 38.05242 -122.17417 16174 ft 364 kts
2026-05-06 03:06 38.07719 -122.17164 16711 ft 367 kts
2026-05-06 03:06 38.10338 -122.16894 17285 ft 370 kts
2026-05-06 03:06 38.12914 -122.16627 17868 ft 372 kts
2026-05-06 03:06 38.15505 -122.16357 18429 ft 375 kts
2026-05-06 03:07 38.18122 -122.16086 18892 ft 378 kts
2026-05-06 03:07 38.20752 -122.15815 19038 ft 378 kts
2026-05-06 03:07 38.23340 -122.15548 19079 ft 378 kts
2026-05-06 03:07 38.25964 -122.15276 19079 ft 377 kts
2026-05-06 03:08 38.28575 -122.15005 19077 ft 377 kts
2026-05-06 03:08 38.31204 -122.14735 19079 ft 377 kts
2026-05-06 03:08 38.33831 -122.14464 19056 ft 378 kts
2026-05-06 03:08 38.36423 -122.14195 19060 ft 378 kts
2026-05-06 03:09 38.39055 -122.13924 19061 ft 378 kts
2026-05-06 03:09 38.41689 -122.13655 19192 ft 381 kts
2026-05-06 03:09 38.44344 -122.13384 19781 ft 382 kts
2026-05-06 03:09 38.46967 -122.13111 20369 ft 384 kts
2026-05-06 03:10 38.49640 -122.12833 20914 ft 385 kts
2026-05-06 03:10 38.52315 -122.12554 21427 ft 387 kts
2026-05-06 03:10 38.55011 -122.12273 21915 ft 388 kts
2026-05-06 03:10 38.57711 -122.11996 22409 ft 390 kts
2026-05-06 03:11 38.60421 -122.11714 22856 ft 392 kts
2026-05-06 03:11 38.63144 -122.11426 23315 ft 393 kts
2026-05-06 03:11 38.65881 -122.11137 23730 ft 395 kts
2026-05-06 03:11 38.68631 -122.10853 24094 ft 397 kts
2026-05-06 03:12 38.71394 -122.10571 24450 ft 399 kts
2026-05-06 03:12 38.74164 -122.10283 24786 ft 401 kts
2026-05-06 03:12 38.76916 -122.09989 25108 ft 403 kts
2026-05-06 03:12 38.79724 -122.09687 25436 ft 405 kts
2026-05-06 03:13 38.82535 -122.09389 25768 ft 405 kts
2026-05-06 03:13 38.85317 -122.09100 25902 ft 401 kts
2026-05-06 03:13 38.88129 -122.08808 26121 ft 407 kts
2026-05-06 03:13 38.90963 -122.08511 26422 ft 409 kts
2026-05-06 03:14 38.93813 -122.08213 26735 ft 412 kts
2026-05-06 03:14 38.96641 -122.07918 27041 ft 414 kts
2026-05-06 03:14 38.99536 -122.07617 27358 ft 416 kts
2026-05-06 03:14 39.02431 -122.07315 27689 ft 418 kts
2026-05-06 03:15 39.05299 -122.07014 28116 ft 417 kts
2026-05-06 03:15 39.08191 -122.06708 28577 ft 415 kts
2026-05-06 03:15 39.11073 -122.06401 29042 ft 414 kts
2026-05-06 03:15 39.12971 -122.06200 29345 ft 413 kts
2026-05-06 03:16 39.15844 -122.05895 29753 ft 413 kts
2026-05-06 03:16 39.18711 -122.05589 30170 ft 413 kts
2026-05-06 03:16 39.21574 -122.05285 30557 ft 412 kts
2026-05-06 03:16 39.24435 -122.04983 30945 ft 411 kts
2026-05-06 03:17 39.27278 -122.04681 31344 ft 409 kts
2026-05-06 03:17 39.30114 -122.04378 31749 ft 408 kts
2026-05-06 03:17 39.32909 -122.04080 31982 ft 408 kts
2026-05-06 03:18 39.38656 -122.03463 32033 ft 418 kts
2026-05-06 03:18 39.44490 -122.02847 32033 ft 420 kts
2026-05-06 03:19 39.50295 -122.02231 32031 ft 421 kts
2026-05-06 03:19 39.56141 -122.01609 32041 ft 421 kts
2026-05-06 03:20 39.64875 -122.00664 32048 ft 422 kts
2026-05-06 03:20 39.70728 -122.00032 32050 ft 422 kts
2026-05-06 03:21 39.76581 -121.99410 32048 ft 422 kts
2026-05-06 03:21 39.82437 -121.98780 32052 ft 422 kts
2026-05-06 03:22 39.88257 -121.98141 32052 ft 421 kts
2026-05-06 03:22 39.94105 -121.97509 32046 ft 422 kts
2026-05-06 03:23 39.99905 -121.96893 32010 ft 407 kts
2026-05-06 03:23 40.02679 -121.96601 32043 ft 391 kts
2026-05-06 03:23 40.05368 -121.96314 32049 ft 396 kts
2026-05-06 03:24 40.10967 -121.95694 32047 ft 403 kts
2026-05-06 03:24 40.16626 -121.95064 32052 ft 416 kts
2026-05-06 03:25 40.22445 -121.94425 32050 ft 421 kts
2026-05-06 03:25 40.28291 -121.93789 32048 ft 421 kts